Showing default

NUSAT-39 (TIKVAH ALPER), 56201

Orbit data source: Space-Track

NUSAT-39 (TIKVAH ALPER), 56201 is a payload satellite owned by URUGUS S.A. (AR) in SSO that was launched on Sat, 15 Apr 2023 UTC via an FALCON 9 launch vehicle from the Air Force Western Test Range (AFWTR). Payload-class satellites include a variety of spacecraft equipped with specific instruments for various scientific and technological missions. These include communications satellites like Starlink; space stations such as the ISS; scientific satellites like the Hubble; Earth observation satellites from companies like Planet Labs, Umbra, and HawkEye 360; GPS; miniature CubeSats for education and research; and military/defense satellites.

Loading next visibility...
Identifier
56201, 2023-054Z
Orbit
SSO
Country
Flag of UnknownUnknown / ARGN
Related business
Manufacturer
URUGUS S.A.
Mission
Operational Commercial Imaging
Bus & Motor
NEWSAT V, Unknown motor
Mass
41.5 kg wet, 38.5 kg dry
Launch date (UTC)
2023-04-15 (3 years ago)
Launch vehicle
FALCON 9
Launch site
Air Force Western Test Range (AFWTR)
Object type
Payload
Rocket body
Debris
Shape & HBR
Box, 1.0 m
Radar Cross Section
0.542 m², Medium (>0.1 m² and < 1m²)

Expand to show TLE details & history
Last TLE update: 7 hours ago

TLE from 7 hours ago
0 NUSAT-39 (TIKVAH ALPER)
1 56201U 23054Z   25310.32103944  .00085374  00000-0  20821-2 0  9997
2 56201  97.3228 214.3583 0008993 107.9664 252.2563 15.40526380144115
Epoch: 2025-11-06T07:42Z
TLE epoch observation values (Epoch: 2025-11-06T07:42:17.807Z)
Latitude
-0.00008°
Longitude
53.00308°
Altitude
449.551 km
Speed
7.642 km/s
True Right ascension
14h 17m 25s
True Declination
0° 00' 00"
Sunlit
Object was in daylight at epoch
Visualization orbit readout
Latitude
Unknown
Longitude
Unknown
Altitude
Unknown
Speed
Unknown
Apparent Right ascension
Unknown
Apparent Declination
Unknown
Sunlit
N/A
Visualization observer readout
Local Sidereal Time
10:39:42
Azimuth
Unknown
Elevation
Unknown
Doppler factor
Unknown
Orbital elements
Apogee altitude
447.623 km
Perigee altitude
435.357 km
Semi-major axis
6,819.627 km
Eccentricity
0.0009
Inclination
97.3228°
RAAN
214.3583°
Arg. of periapsis
107.9664°
True anomaly
252.15818°
Mean anomaly
252.2563°
Eccentric anomaly
252.20724°
Mean motion
3.85392 °/min
Orbital period
93.41 mins
BSTAR
0.0020821
Loading maneuver chart data...
Computing Atmospheric mass density...
Loading historical data...
Loading historical data...
Loading historical data...
Loading historical data...
Loading historical data...
Loading historical data...
Loading historical data...

Documentation

Showing up to 5 results
|